Вернуться в каталог

COSMOS 2251 DEB

АктивенLEO
NORAD 33920·DEBRIS·🇷🇺 Russia

Запущен Jun 16, 1993 с Plesetsk Cosmodrome

Loading…

Ближайшие Пролёты (ближайшие 24 часа)

TLE

СвежийSource: Space-Track

Эпоха: Sep 14, 2026, 02:14 UTC

1 33920U 93036DZ  26257.09342235  .00003878  00000-0  77678-3 0  9992
2 33920  74.0582 133.4656 0032732  75.3904 285.0888 14.61782272921346

Отслеживайте COSMOS 2251 DEB в реальном времени с AllMySat

Download on the App Store